STARLINK-31587, 59570

Orbit data source: Space-Track

STARLINK-31587, 59570 is a payload satellite owned by SpaceX/Seattle (US) in LEO that was launched on Tue, 23 Apr 2024 UTC via an FALCON 9 launch vehicle from the Air Force Eastern Test Range (AFETR). Payload-class satellites include a variety of spacecraft equipped with specific instruments for various scientific and technological missions. These include communications satellites like Starlink; space stations such as the ISS; scientific satellites like the Hubble; Earth observation satellites from companies like Planet Labs, Umbra, and HawkEye 360; GPS; miniature CubeSats for education and research; and military/defense satellites.

Loading next visibility...
Identifier
59570, 2024-076G
Orbit
LEO
Country
Flag of USUS
Related business
Manufacturer
SpaceX/Seattle
Mission
Operational spacecraft
Bus & Motor
STARLINK V2M, Unknown motor
Mass
730 kg wet, ~700 kg dry
Launch date (UTC)
2024-04-23 (1 year ago)
Launch vehicle
FALCON 9
Launch site
Air Force Eastern Test Range (AFETR)
Object type
Payload
Rocket body
Debris
Shape & HBR
Unknown
Radar Cross Section
Large (>1 m²)

Expand to show TLE details & history
Last TLE update: 19 hours ago

TLE from 19 hours ago
0 STARLINK-31587
1 59570U 24076G   25258.34210648  .00004676  00000-0  17934-3 0  9995
2 59570  43.0027 279.4358 0001474 290.5626  69.5068 15.27576123 79704
Epoch: 2025-09-15T08:12Z
TLE epoch observation values (Epoch: 2025-09-15T08:12:37.999Z)
Latitude
Longitude
161.72933°
Altitude
482.483 km
Speed
7.626 km/s
True Right ascension
18h 37m 44s
True Declination
0° 00' 00"
Sunlit
Object was in daylight at epoch
Visualization orbit readout
Latitude
Unknown
Longitude
Unknown
Altitude
Unknown
Speed
Unknown
Apparent Right ascension
Unknown
Apparent Declination
Unknown
Sunlit
N/A
Visualization observer readout
Local Sidereal Time
19:41:11
Azimuth
Unknown
Elevation
Unknown
Doppler factor
Unknown
Orbital elements
Apogee altitude
486.017 km
Perigee altitude
483.994 km
Semi-major axis
6,863.142 km
Eccentricity
0.00015
Inclination
43.0027°
RAAN
279.4358°
Arg. of periapsis
290.5626°
True anomaly
69.52262°
Mean anomaly
69.5068°
Eccentric anomaly
69.51471°
Mean motion
3.81732 °/min
Orbital period
94.31 mins
BSTAR
0.00017934
Loading maneuver chart data...
Computing Atmospheric mass density...
Loading historical data...
Loading historical data...
Loading historical data...
Loading historical data...
Loading historical data...
Loading historical data...
Loading historical data...

Documentation

Showing up to 5 results
|